Weather in Salta

Argentina     24°47′30″S   65°25′13″W
temp.,
°C
wind,
m/s
gust,
m/s
humid.,
%
clouds,
%
prec.,
mm/h
press.,
hPa
HPBL,
m
5 march, fri
fri500:00+15nw128639 0.0 101723
03:00+15nw128569 0.0 101823
06:00+14wnw118596 0.0 101623
09:00+17sw118149 0.0 1018118
12:00+22ese22620 1.3 10171006
15:00+24ne12601 3.3 10151358
18:00+21ene117239 1.5 1012528
21:00+16nw228421 1.7 101424
6 march, sat
sat600:00+17nw227971 0.1 101623
03:00+16nw117968 0.1 101623
06:00+14wnw118124 0.0 101523
09:00+18sse007512 0.0 1016104
12:00+24ese22580 0.0 1015940
15:00+26ese22500 0.0 10121432
18:00+24e225915 0.1 10091193
21:00+19nw227421 0.1 101225
7 march, sun
sun700:00+17nw127741 0.0 101523
03:00+16wnw118020 0.0 101423
06:00+15wnw11810 0.0 101423
09:00+19sse00720 0.0 1015137
12:00+25ese22550 0.0 1014924
15:00+27ese32460 0.0 10111575
18:00+25ese22520 0.1 10091586
21:00+20wnw226930 0.1 101325
8 march, mon
mon800:00+18wnw1273100 0.0 101623
03:00+17nw227396 0.1 101523
06:00+17wnw117198 0.0 101523
09:00+20ssw116699 0.0 1017101
12:00+26ese21515 0.1 1016787
15:00+28s22422 0.4 10141716
18:00+27sse22475 0.1 10121281
21:00+20wnw226627 1.1 101527
9 march, tue
tue900:00+21wnw226395 0.4 101727
03:00+19wnw226397 0.4 101733
06:00+17nw126526 0.0 101723
09:00+21n016225 0.0 101896
12:00+25ese22450 0.0 10161230
15:00+27ese22420 0.0 10131751
18:00+25e125631 0.1 10111273
21:00+21wnw116765 0.2 101425